Theta_e
341 355 360 360 359 357 356 358 361 363 363 363 362 362 361 360 358 355 353 349 347 345 343 340 338 337 336 334 333 333 333 334 335 338 342 345 347 349 352 351 352 352 356
342 356 359 359 359 357 355 358 360 361 362 362 362 361 360 358 356 353 350 346 344 342 340 338 336 335 335 334 333 332 331 331 330 330 332 340 345 346 346 351 350 352 355
342 357 353 358 358 357 355 356 358 360 360 361 361 360 358 356 354 351 349 344 342 341 339 337 336 336 337 336 335 334 334 333 334 333 332 326 341 345 344 345 351 351 354
345 354 346 358 357 358 355 354 355 357 358 359 359 357 356 354 352 348 346 343 341 339 338 338 338 338 337 337 337 337 337 336 337 338 334 328 326 342 342 343 344 350 352
347 352 351 357 357 357 356 354 353 354 355 356 355 354 353 352 351 349 346 344 341 340 339 340 339 338 340 341 341 340 340 339 340 339 337 333 333 336 342 342 347 348 352
345 350 356 356 356 356 356 355 354 353 353 353 353 353 352 350 350 348 346 345 343 341 341 341 339 342 342 342 342 342 342 342 345 345 341 339 335 336 338 342 344 345 347
343 348 355 356 356 356 356 355 354 354 353 353 353 352 350 350 349 347 346 345 344 344 342 341 342 343 343 344 345 345 344 345 344 343 346 343 341 339 336 341 344 347 348
342 348 356 356 355 355 354 354 353 352 352 352 352 351 350 349 349 348 346 346 346 347 346 344 345 344 344 345 346 347 346 347 344 343 342 346 342 341 338 340 345 349 350
343 346 357 357 354 355 355 354 352 351 351 351 350 350 349 349 349 348 347 347 347 348 348 348 348 347 346 346 345 344 344 344 341 339 341 342 345 342 339 340 345 348 347
342 345 347 358 352 348 349 355 353 352 352 351 350 351 350 349 349 348 346 347 348 348 349 349 349 349 347 346 345 344 344 343 339 337 338 344 345 342 340 340 342 345 346
339 344 347 348 352 350 346 348 353 353 353 351 351 351 348 342 343 342 342 345 348 348 349 349 349 349 349 348 346 345 343 339 339 339 337 346 344 342 340 341 342 343 344
337 341 346 350 352 351 345 350 352 347 347 346 343 346 344 342 341 338 341 345 348 349 349 349 350 348 348 344 345 344 340 340 340 339 339 343 341 339 340 342 342 343 344
337 339 343 356 357 353 349 346 347 349 348 349 350 350 348 341 341 340 340 340 342 346 341 345 346 346 344 344 341 344 341 339 337 336 339 342 339 337 340 341 342 343 344
338 340 340 349 360 363 353 349 349 348 351 350 349 354 348 346 347 346 341 340 345 341 343 343 341 346 345 345 344 342 340 339 336 337 341 342 340 340 341 341 341 342 343
334 336 338 342 360 365 364 352 353 353 350 351 352 355 351 346 347 343 346 341 343 340 341 342 343 345 347 344 343 342 340 341 340 338 339 343 341 341 342 343 344 343 343
335 336 338 340 360 361 362 365 362 361 351 351 350 354 357 351 351 345 346 343 342 341 340 341 342 342 344 345 343 343 342 342 342 342 339 342 343 342 342 342 343 343 343
335 338 341 346 349 364 365 363 360 351 351 349 350 361 360 357 354 352 346 344 344 344 349 346 348 344 342 344 344 343 342 342 342 344 342 340 341 343 343 342 342 342 343
339 342 347 337 341 359 359 356 351 347 349 348 349 352 359 360 357 355 345 345 346 344 341 339 338 338 342 339 341 348 345 343 342 341 339 339 342 338 342 343 342 342 343
339 343 341 347 340 350 357 349 350 356 348 346 348 349 358 356 354 353 347 346 352 343 341 340 339 340 337 338 338 345 348 345 342 337 340 340 341 342 338 342 342 343 343
339 345 349 345 351 357 347 353 342 342 345 348 348 349 357 353 352 353 348 351 349 342 340 340 342 339 337 337 340 343 341 342 340 339 339 345 340 342 341 339 340 338 342
339 343 347 346 352 346 337 336 336 338 343 347 349 355 353 353 352 353 347 350 349 343 345 348 340 341 335 343 342 333 337 340 341 338 347 344 341 339 341 337 340 344 338
337 342 344 347 350 352 341 344 339 344 342 346 349 354 353 352 353 351 352 350 350 344 348 346 344 334 338 343 336 330 325 329 334 337 344 341 338 337 336 335 338 341 345
334 339 341 346 350 353 352 346 350 349 350 345 349 350 350 350 351 350 350 351 349 348 340 345 343 344 342 340 339 332 322 324 332 336 335 337 339 341 335 341 338 341 345
330 332 339 344 349 351 357 345 352 344 342 346 347 348 348 349 347 347 348 348 348 345 346 343 344 345 345 334 336 335 335 331 324 323 335 335 337 337 340 336 338 341 342
327 331 337 342 347 350 352 350 343 350 345 346 346 350 347 347 346 347 348 348 348 345 351 350 347 345 339 338 333 330 332 328 331 327 323 329 332 334 335 338 342 343 343
323 325 333 339 345 348 349 354 357 356 355 346 348 342 342 344 347 347 348 349 351 350 349 345 345 343 346 341 334 336 328 325 327 328 327 329 330 333 333 339 341 341 342
Wind_Speed
14 20 20 19 18 16 14 15 14 13 13 15 15 15 13 12 12 12 11 11 11 10 9 8 7 7 6 5 5 5 4 3 3 3 3 4 5 5 4 1 4 5 11
18 20 21 20 19 18 17 15 14 13 12 13 15 15 14 14 13 13 12 10 10 9 9 8 8 7 6 5 4 4 3 2 1 1 2 5 5 5 4 4 3 3 10
19 19 22 20 19 18 17 15 14 13 13 13 14 14 15 14 14 13 12 12 12 11 10 10 9 8 7 6 5 3 2 1 1 3 7 9 11 8 4 3 3 4 9
19 18 20 20 18 18 17 16 15 14 13 13 13 14 14 14 13 12 12 11 11 11 11 10 9 8 7 6 5 4 2 1 3 7 9 8 6 11 4 2 2 2 7
18 18 17 22 18 17 17 15 15 14 13 12 13 13 14 13 11 11 11 11 11 11 10 10 10 9 8 6 5 4 3 2 5 10 8 3 3 11 6 2 6 5 8
17 18 17 22 19 18 17 16 15 14 14 13 13 12 13 12 11 11 12 11 11 11 11 10 9 8 7 6 5 4 4 5 8 12 5 5 6 9 4 2 4 4 3
17 17 20 24 20 19 18 17 16 15 14 14 14 14 13 12 12 11 12 13 12 13 12 11 10 9 7 7 6 5 6 7 11 11 2 5 5 9 2 4 5 6 6
16 15 18 20 19 18 17 18 18 17 16 15 15 15 14 13 13 13 13 14 13 12 12 12 11 9 8 7 6 5 6 8 10 10 9 1 14 11 2 5 6 7 7
15 13 16 15 18 16 16 17 18 18 17 16 16 16 17 16 15 15 15 14 14 13 12 11 10 10 9 8 8 7 8 8 10 9 10 6 14 11 6 3 6 5 3
14 13 13 13 17 17 16 16 16 17 17 17 17 16 17 17 17 16 16 15 15 13 13 12 12 11 10 9 9 9 9 10 11 11 8 5 13 8 5 2 4 4 2
13 13 12 14 16 16 16 16 15 16 17 16 16 16 14 13 16 17 17 16 17 15 14 13 13 12 11 11 11 11 9 9 11 8 5 14 10 7 4 4 6 5 2
15 14 11 10 12 15 12 14 15 15 14 14 15 15 14 14 13 15 15 17 17 16 14 15 13 12 11 10 10 13 8 12 4 5 2 11 7 4 5 7 8 7 6
14 13 13 11 9 12 12 10 8 9 9 10 15 14 13 12 11 11 9 11 11 15 11 13 11 10 12 10 9 12 10 3 6 4 9 12 7 5 8 10 10 10 8
5 5 6 11 11 10 8 10 9 9 9 10 13 16 11 9 10 10 9 12 11 10 12 11 10 11 13 14 10 8 6 6 6 4 10 14 11 8 9 11 11 12 11
9 6 7 8 11 9 10 9 9 9 10 11 12 14 13 12 11 12 10 11 11 12 12 12 11 11 12 12 10 10 10 9 8 5 2 15 14 12 11 12 12 12 13
12 11 9 10 9 12 11 11 7 7 10 10 11 11 17 12 10 12 11 11 10 11 11 12 11 10 9 9 11 11 8 10 9 8 7 8 14 14 13 12 12 13 14
13 13 11 9 7 11 12 10 9 9 10 11 11 11 13 16 13 12 11 11 11 10 10 8 9 9 9 8 9 7 6 9 7 6 4 6 9 13 14 14 13 12 13
14 13 10 10 11 13 10 8 8 10 10 10 10 9 14 14 15 12 11 11 10 9 9 10 10 9 7 10 9 4 3 7 8 10 7 8 6 7 11 15 15 14 13
10 10 12 10 12 10 9 9 10 10 10 10 10 10 12 14 15 13 11 10 10 10 10 10 9 8 9 9 9 3 6 6 11 8 13 7 6 6 7 13 15 14 13
13 10 10 10 12 9 8 7 9 10 11 10 10 11 11 12 15 13 12 11 10 10 10 10 10 9 10 9 6 5 6 8 9 9 5 4 8 9 8 7 8 11 15
12 12 11 13 12 10 11 10 11 11 10 9 10 11 12 12 15 13 12 11 10 11 11 9 8 10 10 6 3 8 8 10 8 9 5 7 9 10 9 6 7 2 8
14 13 14 14 14 12 10 9 10 7 9 10 9 10 11 13 13 12 12 11 10 10 9 10 11 10 8 4 7 6 7 6 9 4 4 6 9 10 8 7 14 9 7
15 14 15 15 14 13 13 8 6 7 7 8 8 9 10 13 11 12 13 9 11 9 10 10 11 12 6 6 6 5 5 1 1 3 7 6 8 7 8 2 7 9 10
17 17 16 15 14 13 12 10 11 9 9 7 7 10 9 9 10 10 10 9 9 10 10 10 9 7 7 7 3 6 9 6 1 2 3 7 7 7 8 5 9 6 8
20 17 14 14 14 14 12 13 11 11 9 8 10 11 8 8 10 14 12 10 11 10 9 10 9 7 5 4 6 6 5 6 6 5 4 4 7 5 4 5 4 4 7
16 16 12 12 13 13 13 14 13 12 10 11 10 10 8 9 9 10 12 9 10 9 9 8 6 8 6 7 7 3 4 4 3 6 5 5 5 4 2 3 3 5 5
Wind_Direction
135 143 159 163 165 163 167 167 168 168 161 155 154 153 152 152 155 152 147 142 141 143 141 140 136 129 123 117 114 101 92 82 75 78 80 86 80 60 41 319 253 219 142
143 149 165 166 168 167 170 170 167 171 166 161 157 155 155 159 162 158 157 154 153 154 152 153 153 145 140 127 112 101 93 75 46 335 245 198 140 98 65 23 328 115 154
145 154 169 172 170 170 171 171 166 171 170 167 164 162 162 166 169 168 165 164 166 168 169 168 163 159 152 143 135 124 99 65 306 278 264 246 156 117 68 40 25 142 155
142 157 174 174 173 170 173 174 170 173 175 173 170 171 171 172 172 172 170 171 177 177 176 173 172 167 162 152 152 145 155 219 282 276 251 232 255 124 104 17 32 196 167
150 162 177 168 173 173 173 177 175 177 175 178 178 177 178 175 173 173 176 178 184 184 186 184 177 175 172 167 172 175 200 236 271 273 261 290 306 114 120 3 242 214 201
161 165 152 164 174 176 176 178 179 183 179 182 181 186 184 178 177 178 178 184 190 193 194 193 188 188 185 187 192 207 234 250 264 252 168 122 257 107 87 346 320 305 252
168 168 149 162 177 180 179 178 181 183 185 187 185 189 191 183 182 184 186 191 196 197 196 198 199 200 202 211 211 223 240 253 272 291 274 179 91 93 51 299 307 298 250
165 166 145 163 171 181 185 183 183 185 187 193 189 189 190 190 190 190 196 198 200 203 202 203 202 210 217 231 247 241 248 250 265 258 271 64 132 127 150 290 307 296 252
155 169 142 171 175 179 190 192 188 189 189 194 195 192 190 193 195 195 200 201 204 206 206 207 208 214 223 234 244 246 249 253 273 277 284 218 129 134 143 279 310 322 193
163 167 169 168 182 189 192 195 194 194 196 198 197 197 198 195 196 198 199 203 208 211 210 212 213 215 221 227 238 243 248 254 255 263 252 132 130 134 146 257 288 314 211
174 173 183 179 177 191 198 191 196 199 204 201 203 204 199 208 201 204 206 201 204 210 212 215 218 220 220 226 227 229 241 246 234 220 256 126 134 139 164 226 257 265 250
184 181 182 203 193 189 202 193 194 203 210 211 213 208 212 216 216 210 205 210 199 205 213 218 220 220 228 241 202 211 226 245 259 262 230 126 125 154 219 232 245 248 243
202 190 185 172 203 208 204 195 193 202 204 207 213 211 210 218 218 208 212 193 207 204 214 212 213 221 222 231 241 201 215 245 253 243 111 137 142 204 233 235 241 241 245
186 196 226 184 188 213 222 197 205 212 201 204 206 206 213 207 215 219 207 201 195 206 215 212 210 213 227 229 248 285 248 259 277 249 140 148 158 196 233 238 237 241 240
249 224 216 214 180 202 215 226 212 215 210 222 209 196 203 216 215 207 217 220 195 208 196 222 220 208 215 225 230 225 239 249 255 276 295 159 172 187 220 234 234 240 237
265 252 246 231 181 190 209 215 237 225 240 226 226 211 193 206 213 217 208 211 226 206 218 202 217 227 223 232 223 230 239 241 238 243 251 164 177 185 202 222 231 235 230
242 254 254 247 211 197 204 215 222 244 234 238 232 213 194 201 212 211 213 215 217 225 223 211 221 214 236 223 241 223 205 239 259 260 239 240 186 193 203 212 219 225 224
247 245 247 252 232 193 206 226 242 247 233 242 230 225 203 192 214 210 220 211 218 219 213 221 214 222 210 235 238 213 259 253 251 236 245 239 173 188 209 213 212 215 222
253 244 246 252 244 250 212 234 240 242 243 242 229 226 201 199 198 225 212 221 207 218 212 209 222 211 223 234 235 205 235 234 252 235 235 227 261 247 189 209 206 207 213
224 242 243 245 246 240 255 249 250 247 232 233 229 219 195 195 201 195 213 218 202 216 213 208 206 212 235 240 233 221 221 219 245 265 279 298 245 259 263 168 190 208 204
242 228 237 239 244 250 243 237 240 235 229 224 223 209 200 191 199 188 216 195 208 210 216 188 201 222 228 228 217 249 216 203 224 234 193 237 243 239 208 231 211 96 178
243 235 228 234 236 236 227 237 250 252 233 214 208 191 194 192 195 188 212 191 188 207 197 191 207 214 220 208 228 270 276 225 209 245 230 229 226 238 219 149 247 164 185
246 237 229 227 231 232 227 221 222 251 258 205 193 177 196 191 190 186 211 189 174 217 188 200 203 224 193 200 219 267 272 62 280 215 216 228 234 248 242 267 284 177 187
246 248 241 230 221 220 206 228 213 216 208 207 198 202 177 178 168 169 208 200 177 206 176 191 198 205 229 208 196 238 263 297 241 264 213 200 215 221 241 135 227 204 158
246 238 224 226 214 214 195 216 216 221 199 182 203 135 152 158 168 185 189 199 183 212 156 180 186 196 178 227 230 244 202 237 228 256 256 211 218 200 246 239 190 198 208
248 243 225 217 215 205 211 199 226 191 218 170 154 161 168 173 179 183 184 177 178 206 165 189 171 191 215 236 256 321 220 225 232 214 239 211 209 150 274 242 177 191 217